#timestamp,LO_Frequency,Hit,StdDev 
1508385615.3,286046998.9,N
1508385635.2,286047000.8,N
1508385655.9,286047000.7,N
1508385675.7,286046998.4,N
1508385695.6,286047000.5,N
1508385715.4,286046999.5,N
1508385735.2,286046999.2,N
1508385755.1,286046999.0,N
1508385756.0,286046999.0,N
1508385775.8,286046994.0,Y
1508385795.6,286046994.7,P
1508385815.5,286046993.7,N
1508385835.3,286046992.7,N
1508385855.1,286046994.6,N
1508385875.9,286046993.3,N
1508385895.7,286046996.7,N
1508385915.5,286046999.0,N
1508385935.3,286046999.6,N
1508385955.2,286046997.2,N
1508385975.0,286046994.5,N
1508385975.9,286046994.5,N
1508385995.7,286046992.8,N
1508386015.6,286046992.1,Y
1508386035.4,286047001.0,P
1508386055.2,286046998.6,N
1508386075.1,286046998.8,N
1508386076.0,286046998.8,N
1508386095.8,286047000.6,N
1508386115.6,286047003.8,N
1508386135.5,286047001.5,N
1508386155.3,286047001.1,N
1508386175.1,286046998.4,N
1508386195.9,286046995.6,N
1508386215.7,286046990.9,Y
1508386235.5,286046990.3,P
1508386255.4,286046990.8,N
1508386275.2,286046990.9,N
1508386295.0,286046987.1,Y
1508386295.9,286046987.1,P
1508386315.8,286046992.0,N
1508386335.6,286046991.5,P
1508386355.4,286046988.5,Y
1508386375.3,286046998.7,P
1508386395.1,286046996.9,N
1508386415.8,286046997.7,N
1508386435.7,286046993.4,N
1508386455.5,286046994.6,N
1508386475.3,286046993.1,N
1508386495.2,286046990.1,Y
1508386515.0,286046996.2,P
1508386515.9,286046996.2,P
1508386535.7,286046995.0,P
1508386555.6,286046993.8,Y
1508386575.4,286047001.0,P
1508386595.2,286046998.6,N
1508386615.1,286046996.6,N
1508386616.0,286046996.6,N
1508386635.8,286046995.7,N
1508386655.7,286046993.6,Y
1508386675.5,286046996.7,P
1508386695.3,286046997.5,P
1508386715.1,286046995.1,P
1508386735.9,286046993.4,Y
1508386755.7,286046995.3,P
1508386775.6,286046995.9,P
1508386795.4,286046993.8,P
1508386815.2,286046994.1,Y
1508386835.1,286046999.2,P
1508386836.0,286046999.2,N
1508386855.8,286046998.7,N
1508386875.6,286046998.5,N
1508386895.5,286046998.7,N
1508386915.3,286046997.1,N
1508386935.1,286046996.5,N
1508386955.9,286046995.2,Y
1508386975.7,286046999.4,P
1508386995.5,286046997.8,P
1508387015.3,286046995.1,P
1508387035.2,286046998.0,N
1508387055.0,286047001.5,N
1508387055.9,286047001.5,N
1508387075.7,286047006.4,Y
1508387095.6,286047010.8,P
1508387115.4,286047010.2,N
1508387135.2,286047012.8,N
1508387155.1,286047013.7,N
1508387156.0,286047013.7,N
1508387175.8,286047015.6,N
1508387195.6,286047019.7,Y
1508387215.5,286047010.2,P
1508387235.3,286047009.8,P
1508387255.1,286047013.3,P
1508387275.9,286047019.7,Y
1508387295.7,286047003.0,P
1508387315.5,286047004.8,N
1508387335.4,286047006.0,N
1508387355.2,286047005.8,N
1508387375.0,286047010.1,Y
1508387376.0,286047010.1,P
1508387395.8,286047004.9,N
1508387415.6,286047004.5,N
1508387435.4,286047005.3,N
1508387455.3,286047006.6,Y
1508387475.1,286046999.7,P
1508387495.8,286046999.7,N
1508387515.7,286046998.9,N
1508387535.5,286046999.5,N
1508387555.3,286046999.0,N
1508387575.2,286047001.2,N
1508387595.9,286046998.8,N
1508387615.7,286047000.9,N
1508387635.6,286046996.8,N
1508387655.4,286046998.4,N
1508387675.2,286047000.2,N
1508387695.1,286046999.1,N
1508387696.0,286046999.1,N
1508387715.8,286047002.5,N
1508387735.6,286046998.5,N
1508387755.5,286046999.3,N
1508387775.3,286046998.1,N
1508387795.1,286046999.0,N
1508387815.9,286046996.1,N
1508387835.7,286046997.9,N
1508387855.5,286046997.0,N
1508387875.3,286047000.0,N
1508387895.2,286046999.4,N
1508387915.0,286046999.6,N
1508387915.9,286046999.6,N
1508387935.7,286046999.6,N
1508387955.6,286046996.9,N
1508387975.4,286046995.3,N
1508387995.2,286046999.5,N
1508388015.1,286047000.2,N
1508388016.0,286047000.2,N
1508388035.8,286047002.3,N
1508388055.6,286046997.1,N
1508388075.5,286046994.9,Y
1508388095.3,286046997.6,P
1508388115.1,286046994.0,P
1508388135.9,286046992.4,P
1508388155.7,286046988.5,Y
1508388175.5,286046994.1,P
1508388195.4,286046990.2,P
1508388215.2,286046991.0,P
1508388235.0,286046988.7,Y
1508388235.9,286046988.7,P
1508388255.8,286046996.8,N
1508388275.6,286046996.2,N
1508388295.4,286046996.2,N
1508388315.3,286046996.8,N
1508388335.1,286046997.2,N
1508388355.8,286046995.5,N
1508388375.7,286046997.5,N
1508388395.5,286046993.4,N
1508388415.3,286046998.0,N
1508388435.2,286046994.1,N
1508388455.9,286046994.7,N
1508388475.7,286046995.8,N
1508388495.6,286046995.7,N
1508388515.4,286046995.5,N
1508388535.2,286046993.8,N
1508388555.1,286046992.2,Y
1508388556.0,286046992.2,P
1508388575.8,286046996.1,N
1508388595.6,286046999.1,N
1508388615.5,286046997.1,N
1508388635.3,286046993.9,N
1508388655.1,286046995.8,N
1508388675.8,286046995.0,N
1508388695.7,286046995.4,N
1508388715.5,286046997.9,N
1508388735.3,286046995.9,N
1508388755.2,286046995.8,N
1508388775.0,286046996.7,N
1508388775.9,286046996.7,N
1508388795.7,286046997.5,N
1508388815.6,286046997.9,N
1508388835.4,286046995.3,N
1508388855.2,286046995.9,N
1508388875.1,286046995.0,Y
1508388876.0,286046995.0,P
1508388895.8,286046999.7,N
1508388915.6,286046999.6,N
1508388935.5,286046997.3,N
1508388955.3,286047004.9,N
1508388975.1,286047008.6,N
1508388995.9,286047006.1,N
1508389015.7,286047009.5,N
1508389035.5,286047011.2,N
1508389055.4,286047012.8,N
1508389075.2,286047018.2,N
1508389095.0,286047017.1,N
1508389095.9,286047017.1,N
1508389115.8,286047018.6,N
1508389135.6,286047020.3,N
1508389155.4,286047020.0,N
1508389175.3,286047021.9,N
1508389195.1,286047023.5,N
1508389196.0,286047023.5,N
